Location: Newark
(30.1000°N, 109.4667°E)
Time: 19:45:11
(UTC+00:00)

Vanguard 1 Rocket - All Passes

Search period start: 16 February 2020 00:00
Search period end: 26 February 2020 00:00
Orbit: 650 x 4226 km, 34.3° (Epoch: 16 February)

Date Brightness Start Highest point End Pass type
(mag) Time Alt. Az. Time Alt. Az. Time Alt. Az.
16 Feb - 01:11:52 10° WNW 01:16:44 81° SSW 01:24:49 10° ESE daylight
16 Feb - 03:36:46 10° W 03:42:51 29° SSW 03:52:57 10° SSE daylight
16 Feb - 16:43:48 10° S 16:49:12 15° SSE 16:53:19 10° ESE night (unlit)
16 Feb - 19:08:17 10° SW 19:15:42 48° SSE 19:20:23 10° E night (unlit)
16 Feb - 21:35:46 10° W 21:40:39 57° N 21:45:00 10° ENE visible
17 Feb - 00:01:22 10° WNW 00:05:47 70° NNE 00:11:55 10° E daylight
17 Feb - 02:25:45 10° W 02:31:07 41° SSW 02:40:18 10° SE daylight
17 Feb - 04:54:07 10° SW 04:58:33 14° SSW 05:04:14 10° S daylight
17 Feb - 17:55:57 10° SW 18:04:23 32° SSE 18:09:34 10° E night (unlit)
17 Feb - 20:23:34 10° WSW 20:29:47 82° NNW 20:34:13 10° ENE visible
17 Feb - 22:50:32 10° WNW 22:54:52 53° N 22:59:41 10° E visible
18 Feb - 01:15:08 10° WNW 01:19:53 61° SSW 01:27:33 10° ESE daylight
18 Feb - 03:40:58 10° WSW 03:46:09 20° SSW 03:53:49 10° SSE daylight
18 Feb - 16:43:54 10° SSW 16:52:33 23° SSE 16:58:12 10° ESE night (unlit)
18 Feb - 19:10:51 10° WSW 19:18:51 67° SSE 19:23:42 10° ENE night (unlit)
18 Feb - 21:39:01 10° W 21:43:55 52° N 21:48:13 10° ENE visible
19 Feb - 00:04:34 10° WNW 00:08:58 86° NNE 00:15:01 10° ESE daylight
19 Feb - 02:29:24 10° W 02:34:21 29° SSW 02:42:07 10° SSE daylight
19 Feb - 15:32:50 10° S 15:40:08 16° SSE 15:45:32 10° ESE visible
19 Feb - 17:57:52 10° SW 18:07:36 45° SSE 18:13:08 10° E night (unlit)
19 Feb - 20:26:41 10° W 20:32:59 67° NNW 20:37:25 10° ENE visible
19 Feb - 22:53:44 10° WNW 22:58:08 59° N 23:02:57 10° E visible
20 Feb - 01:18:29 10° W 01:23:03 43° SSW 01:30:03 10° SE daylight
20 Feb - 03:46:22 10° SW 03:49:32 13° SSW 03:53:24 10° S daylight
20 Feb - 16:44:57 10° SSW 16:55:51 32° SSE 17:02:13 10° E night (unlit)
20 Feb - 19:13:37 10° WSW 19:22:00 86° SSE 19:26:57 10° ENE visible
20 Feb - 21:42:16 10° WNW 21:47:12 51° N 21:51:29 10° ENE visible
21 Feb - 00:07:47 10° WNW 00:12:08 71° SSW 00:17:59 10° ESE daylight
21 Feb - 02:33:29 10° WSW 02:37:38 19° SSW 02:43:24 10° SSE daylight
21 Feb - 15:32:30 10° SSW 15:43:31 23° SSE 15:50:33 10° ESE visible
21 Feb - 18:00:07 10° SW 18:10:46 61° SSE 18:16:31 10° ENE night (unlit)
21 Feb - 20:29:52 10° W 20:36:13 58° N 20:40:38 10° ENE visible
21 Feb - 22:56:54 10° WNW 23:01:22 73° NNE 23:06:10 10° E daylight
22 Feb - 01:22:03 10° W 01:26:14 29° SSW 01:32:14 10° SSE daylight
22 Feb - 14:21:23 10° S 14:30:30 16° SSE 14:37:15 10° ESE visible
22 Feb - 16:46:29 10° SW 16:59:04 44° SSE 17:05:52 10° E night (unlit)
22 Feb - 19:16:34 10° WSW 19:25:09 78° NNW 19:30:10 10° ENE visible
22 Feb - 21:45:27 10° WNW 21:50:30 55° N 21:54:47 10° E visible
23 Feb - 00:11:04 10° W 00:15:18 49° SSW 00:20:47 10° SE daylight
23 Feb - 02:38:54 10° SW 02:40:57 11° SSW 02:43:17 10° S daylight
23 Feb - 15:33:07 10° SSW 15:46:46 32° SSE 15:54:41 10° E visible
23 Feb - 18:02:38 10° WSW 18:13:53 77° SSE 18:19:48 10° ENE night (unlit)
23 Feb - 20:33:03 10° W 20:39:29 55° N 20:43:55 10° ENE visible
23 Feb - 23:00:04 10° WNW 23:04:35 85° SSW 23:09:20 10° ESE daylight
24 Feb - 01:26:00 10° WSW 01:29:27 19° SSW 01:33:55 10° SSE daylight
24 Feb - 14:20:34 10° SSW 14:33:51 24° SSE 14:42:30 10° ESE visible
24 Feb - 16:48:24 10° SW 17:02:13 57° SSE 17:09:18 10° E night (unlit)
24 Feb - 19:19:38 10° W 19:28:21 68° NNW 19:33:24 10° ENE visible
24 Feb - 21:48:36 10° WNW 21:53:46 64° N 21:58:07 10° E visible
25 Feb - 00:14:30 10° W 00:18:26 32° SSW 00:23:17 10° SE daylight
25 Feb - 13:09:55 10° S 13:20:15 16° SSE 13:28:11 10° ESE visible
25 Feb - 15:34:17 10° SW 15:49:57 43° SSE 15:58:24 10° E visible
25 Feb - 18:05:21 10° WSW 18:17:00 89° NNW 18:23:02 10° ENE night (unlit)
25 Feb - 20:36:14 10° WNW 20:42:46 56° N 20:47:14 10° E visible
25 Feb - 23:03:15 10° WNW 23:07:43 60° SSW 23:12:20 10° ESE daylight
